Regional Weather Roundup
Issued by NWS

Home | Current Version | Previous Version | Graphics & Text | Print | Product List | Glossary On
Versions: 1 2 3 4 5 6 7 8 9 10 11 12 13 14 15 16 17 18 19 20 21 22 23 24 25 26 27 28 29 30 31 32 33 34 35 36 37 38 39 40 41 42 43 44 45 46 47 48 49 50
000
ASUS43 KMKX 250611
RWRWI

WISCONSIN REGIONAL WEATHER ROUNDUP
NATIONAL WEATHER SERVICE MILWAUKEE/SULLIVAN WI
100 AM CDT MON JUL 25 2016

NOTE: "FAIR" INDICATES FEW OR NO CLOUDS BELOW 12,000 FEET WITH NO
SIGNIFICANT WEATHER AND/OR OBSTRUCTIONS TO VISIBILITY.

WIZ001-002-006>008-014>016-023>028-250700-
NORTHWEST WISCONSIN

CITY           SKY/WX    TMP DP  RH WIND       PRES   REMARKS
SUPERIOR ARPT  CLEAR     65  62  87 W5        29.91R
6HR MIN TEMP:  65; 6HR MAX TEMP:  79;

ASHLAND        CLEAR     67  61  81 SW8       29.90R
6HR MIN TEMP:  66; 6HR MAX TEMP:  80;

HAYWARD        CLEAR     67  61  81 SW3       29.94R
6HR MIN TEMP:  66; 6HR MAX TEMP:  79;

SIREN          NOT AVBL
CUMBERLAND     CLEAR     63  59  88 W7        29.96S
RICE LAKE      CLEAR     66  61  85 W6        29.97S
6HR MIN TEMP:  66; 6HR MAX TEMP:  77;

CHETEK         CLEAR     69  62  78 NW5       29.95S
6HR MIN TEMP:  68; 6HR MAX TEMP:  77;

LADYSMITH      CLEAR     67  62  84 W3        29.96S
6HR MIN TEMP:  67; 6HR MAX TEMP:  78;

EAU CLAIRE     CLEAR     66  63  90 SW6       29.95R
6HR MIN TEMP:  66; 6HR MAX TEMP:  79;

MENOMONIE      CLEAR     70  63  78 SW5       29.96S
6HR MIN TEMP:  70; 6HR MAX TEMP:  82;

NEW RICHMOND   CLEAR     65  60  82 W7        29.98R
6HR MIN TEMP:  65; 6HR MAX TEMP:  79;

OSCEOLA        CLEAR     67  61  79 W6        30.00R
6HR MIN TEMP:  67; 6HR MAX TEMP:  81;

$$

WIZ003>005-009-010-017-018-250700-
NORTH CENTRAL WISCONSIN

CITY           SKY/WX    TMP DP  RH WIND       PRES   REMARKS
MANITOWISH WTR CLEAR     65  63  93 W8        29.92R
6HR MIN TEMP:  62; 6HR MAX TEMP:  76;

ARBOR VITAE    CLEAR     69  63  80 NW5       29.93R
6HR MIN TEMP:  69; 6HR MAX TEMP:  80;

WOODRUFF       CLEAR     69  63  80 NW5       29.93R
6HR MIN TEMP:  69; 6HR MAX TEMP:  80;

RHINELANDER    CLEAR     63  61  93 W6        29.94R
6HR MIN TEMP:  63; 6HR MAX TEMP:  78;

EAGLE RIVER    CLEAR     64  61  89 W6        29.92R
6HR MIN TEMP:  62; 6HR MAX TEMP:  78;

LAND O LAKES   CLEAR     66  59  79 W3        29.92R
6HR MIN TEMP:  66; 6HR MAX TEMP:  79;

PHILLIPS       CLEAR     64  61  90 CALM      29.93S
6HR MIN TEMP:  64; 6HR MAX TEMP:  77;

TOMAHAWK       CLEAR     62  59  89 W3        29.94S
6HR MIN TEMP:  62; 6HR MAX TEMP:  77;

MEDFORD        CLEAR     64  64 100 W5        29.95S
6HR MIN TEMP:  64; 6HR MAX TEMP:  77;

MERRILL        CLEAR     64  62  91 W6        29.94S
6HR MIN TEMP:  64; 6HR MAX TEMP:  80;

$$

WIZ029-030-035-036-043>047-250700-
CENTRAL WISCONSIN

CITY           SKY/WX    TMP DP  RH WIND       PRES   REMARKS
WAUSAU         CLEAR     67  62  84 NW7       29.92R
6HR MIN TEMP:  67; 6HR MAX TEMP:  81;

MOSINEE        CLEAR     64  63  94 W7        29.95S
MARSHFIELD     CLEAR     66  61  84 W5        29.95R
6HR MIN TEMP:  66; 6HR MAX TEMP:  80;

STEVENS POINT  CLEAR     67  62  83 W5        29.95R
6HR MIN TEMP:  67; 6HR MAX TEMP:  81;

WAUPACA        CLEAR     70  67  90 W3        29.94R
6HR MIN TEMP:  70; 6HR MAX TEMP:  85;

WAUTOMA        CLEAR     67  65  93 W6        29.95R
6HR MIN TEMP:  67; 6HR MAX TEMP:  84;

WISC RAPIDS    CLEAR     67  61  81 W5        29.96R
6HR MIN TEMP:  67; 6HR MAX TEMP:  83;

CAMP DOUGLAS   CLOUDY    65  64  93 W6        29.97R
6HR MIN TEMP:  64; 6HR MAX TEMP:  80;

$$

WIZ011>013-019>022-031-037>040-048>050-250700-
NORTHEAST WISCONSIN

CITY           SKY/WX    TMP DP  RH WIND       PRES   REMARKS
ANTIGO         CLEAR     64  62  91 CALM      29.94R
6HR MIN TEMP:  64; 6HR MAX TEMP:  78;

SHAWANO        PTCLDY    71  64  78 W5        29.91R
6HR MIN TEMP:  71; 6HR MAX TEMP:  84;

OCONTO         CLOUDY    70  70 100 W6        29.88R
                                      6HR PCP:  0.01;

STURGEON BAY   CLOUDY    73  67  81 W6        29.88R
6HR MIN TEMP:  73; 6HR MAX TEMP:  84;

GREEN BAY      CLOUDY    70  67  90 W7        29.90R
6HR MIN TEMP:  70; 6HR MAX TEMP:  83;

MANITOWOC      CLOUDY    75  65  70 W9        29.89R
6HR MIN TEMP:  75; 6HR MAX TEMP:  86; 6HR PCP:  0.20;

APPLETON       PTCLDY    68  61  77 W7        29.91R
CLINTONVILLE   CLEAR     68  61  77 W3        29.91R
OSHKOSH        CLOUDY    72  64  76 W6        29.92R
6HR MIN TEMP:  72; 6HR MAX TEMP:  85;

$$

WIZ032>034-041-042-053>061-250700-
SOUTHWEST WISCONSIN

CITY           SKY/WX    TMP DP  RH WIND       PRES   REMARKS
LA CROSSE      CLEAR     71  66  84 CALM      29.97R
6HR MIN TEMP:  71; 6HR MAX TEMP:  83;

SPARTA         CLEAR     64  63  97 CALM      29.98R
6HR MIN TEMP:  64; 6HR MAX TEMP:  81;

VIROQUA        CLEAR     67  65  93 W3        30.00R
6HR MIN TEMP:  67; 6HR MAX TEMP:  79;

BOSCOBEL       CLOUDY    70  67  90 CALM      29.99R
6HR MIN TEMP:  68; 6HR MAX TEMP:  82;

PRAIRIE DU CHI CLOUDY    72  64  77 CALM      29.99R
6HR MIN TEMP:  70; 6HR MAX TEMP:  80;

PLATTEVILLE    CLOUDY    68  68 100 W3        30.01R
6HR MIN TEMP:  68; 6HR MAX TEMP:  81;

$$

WIZ056-057-062-063-064-067-068-250700-
SOUTH CENTRAL WISCONSIN

CITY           SKY/WX    TMP DP  RH WIND       PRES   REMARKS
REEDSBURG      PTCLDY    69  67  94 CALM      29.97R
6HR MIN TEMP:  69; 6HR MAX TEMP:  81;

BARABOO/DELLS  PTCLDY    69  64  83 W3        29.97R
6HR MIN TEMP:  69; 6HR MAX TEMP:  82;

LONE ROCK      CLOUDY    70  67  90 W3        29.99R
6HR MIN TEMP:  70; 6HR MAX TEMP:  83;

MINERAL POINT  MOCLDY    70  68  94 NW3       30.00R
MADISON        CLOUDY    74  66  76 VRB6      29.95R
6HR MIN TEMP:  74; 6HR MAX TEMP:  86;

MIDDLETON      CLOUDY    72  67  84 W7        29.98R
6HR MIN TEMP:  72; 6HR MAX TEMP:  84;

WATERTOWN      CLOUDY    74  67  78 NW7       29.94R
6HR MIN TEMP:  74; 6HR MAX TEMP:  86;

MONROE         CLOUDY    72  66  83 NW10      29.97R
JANESVILLE     CLOUDY    73  68  83 NW3       29.95R
$$

WIZ051-052-058>065-066-070>072-250700-
SOUTHEAST WISCONSIN

CITY           SKY/WX    TMP DP  RH WIND       PRES   REMARKS
MILWAUKEE      CLOUDY    81  66  60 W9        29.92R HX  83
6HR MIN TEMP:  81; 6HR MAX TEMP:  92;

WAUKESHA       CLOUDY    73  64  73 W7        29.95R
MILWAUKEE/TIMM CLOUDY    77  63  61 W8        29.94R
RACINE         CLOUDY    77  67  71 W3        29.95R
6HR MIN TEMP:  77; 6HR MAX TEMP:  88; 6HR PCP:  0.05;

BURLINGTON     CLOUDY    73  69  88 SW3       29.94R
6HR MIN TEMP:  73; 6HR MAX TEMP:  88;

KENOSHA        CLOUDY    75  68  78 SW5       29.95R
6HR MIN TEMP:  74; 6HR MAX TEMP:  90;

FOND DU LAC    CLOUDY    73  65  75 NW10      29.93R
6HR MIN TEMP:  73; 6HR MAX TEMP:  86;

SHEBOYGAN      MOCLDY    75  66  73 NW7       29.91R
6HR MIN TEMP:  73; 6HR MAX TEMP:  87;

WEST BEND      CLOUDY    73  63  68 NW7       29.93R
JUNEAU         PTCLDY    73  65  77 NW3       29.95R
6HR MIN TEMP:  73; 6HR MAX TEMP:  84;

$$

LSZ147-162-250700-
LAKE SUPERIOR

STATION/POSITION TIME  TEMP    WIND        PRES    WAVE
                       AIR SEA DIR/SP/G            HT/PER
                 (UTC) (F)     (DEG/KT/KT) (MB)    (FT/S)
W MID LAKE BUOY  0550   65 59  260/ 14/ 16 1009.0R   2/ 4
DEVILS ISLAND    0600   66     260/ 15/ 16 1010.9R
SAXON HARBOR     0540   72     210/  7/ 10 1011.5R
$$

LMZ867-665-643>646-250700-
LAKE MICHIGAN

STATION/POSITION TIME  TEMP    WIND        PRES    WAVE
                       AIR SEA DIR/SP/G            HT/PER
                 (UTC)C1F1C2F2C3F3C4F4C5F5C6F6C7F7C8M1C9M2Ca!



USA.gov is the U.S. government's official web portal to all federal, state and local government web resources and services.